Theta_e
316 318 318 317 319 322 322 324 319 321 322 311 313 316 319 325 325 324 324 325 326 331 333 330 329 332 335 337 339 346 350 348 350 342 342 356 350 348 352 351 352 349 347 346 342 336 333 328 322 322 322 324 325 327 328 327 327 327 327 328 331 333 337 338 340 341 342 343 343 344 344 344 344 344 344 344 344 344 344 343 344 344 344 343 343 343 342 341 340 339 338 339 339 338 336 334 332
320 321 318 318 320 321 322 323 317 315 315 309 314 318 321 326 324 324 327 328 330 334 333 329 332 336 338 339 338 343 351 350 351 350 350 352 349 352 352 351 351 348 347 345 343 342 339 329 323 323 322 323 323 323 323 323 324 325 327 331 334 336 338 340 341 342 343 343 343 344 344 344 344 344 344 344 344 343 344 343 343 343 343 343 342 343 342 341 340 339 338 339 339 339 338 335 332
317 319 319 320 320 321 322 322 316 311 311 308 313 322 325 325 325 329 332 331 333 333 332 333 334 338 336 335 338 345 350 349 349 349 348 350 352 352 351 351 350 348 347 345 344 345 341 330 325 326 324 323 322 324 326 327 327 326 327 331 334 338 340 341 343 343 343 343 344 343 343 344 344 344 343 343 343 343 343 343 343 343 343 342 342 342 341 341 340 339 340 340 338 336 335 332 331
314 319 319 320 320 320 322 321 318 312 310 309 311 322 326 327 330 334 336 334 334 334 333 334 335 339 340 341 343 346 348 347 349 348 349 351 352 352 351 351 348 348 346 345 344 344 340 330 328 328 328 328 328 333 337 338 337 333 332 334 338 341 343 343 343 343 343 343 344 343 344 344 344 344 343 343 342 342 342 343 343 342 342 342 342 341 341 341 341 340 339 337 333 330 331 331 331
317 320 318 319 319 320 321 320 320 314 311 313 313 322 327 328 335 337 337 336 335 336 335 336 337 340 343 347 346 345 347 346 348 349 350 352 352 352 351 349 348 347 345 345 344 344 339 331 329 331 332 334 337 341 342 343 342 341 340 341 342 342 343 343 343 343 343 343 344 343 344 344 343 343 342 342 341 341 341 341 341 342 342 341 341 341 340 340 339 337 333 331 329 329 330 330 331
318 319 318 319 319 320 320 316 314 313 317 321 318 323 327 324 333 333 334 337 336 337 335 336 338 341 347 349 348 346 349 347 347 348 350 351 351 351 350 348 347 346 345 345 344 344 339 332 329 332 335 338 341 342 343 344 343 343 343 343 343 343 343 343 344 344 344 344 343 343 343 343 342 341 341 339 337 336 336 336 337 339 340 340 341 340 339 338 337 332 329 329 328 329 330 330 330
318 320 320 319 319 319 317 313 312 315 320 325 322 323 325 323 329 327 330 335 337 338 335 338 339 341 346 348 349 349 350 348 348 348 350 351 350 350 348 347 346 345 345 344 344 343 339 332 329 333 337 340 342 342 343 344 343 343 343 343 343 343 344 344 344 344 344 343 343 342 342 341 340 339 337 333 328 327 326 326 328 332 336 337 338 339 339 337 333 329 329 329 327 328 331 331 329
318 320 320 321 320 320 317 314 316 318 321 324 324 324 324 322 327 325 326 328 331 336 334 339 338 339 344 344 349 350 350 350 348 349 349 350 350 348 346 346 345 345 344 345 343 342 339 333 333 336 338 339 341 341 343 343 343 343 343 343 343 343 343 344 343 343 343 342 342 340 339 338 337 336 334 329 324 322 321 320 320 323 330 333 334 336 338 335 331 330 330 328 326 329 332 331 329
318 318 319 320 319 317 315 315 317 321 322 323 323 324 323 321 326 326 324 323 326 329 334 339 338 342 345 346 350 351 349 350 349 348 349 348 348 346 346 345 344 345 346 345 342 341 339 336 336 337 337 339 341 341 342 342 343 343 343 343 343 343 343 344 343 343 342 340 339 337 336 335 335 334 331 327 324 323 322 320 317 318 324 329 329 331 332 331 331 331 330 326 325 330 332 332 330
318 318 318 319 317 313 311 313 317 320 323 324 323 323 321 321 323 324 323 323 324 327 336 339 339 343 345 348 351 351 350 350 348 348 348 347 347 346 346 345 344 346 346 345 343 341 340 338 337 337 337 338 340 342 342 342 343 343 343 343 343 343 343 343 343 342 341 339 338 337 337 336 335 333 330 327 323 323 324 321 316 314 316 320 324 326 326 326 327 329 327 324 325 330 333 333 331
317 318 318 317 314 309 309 313 316 320 323 323 322 321 321 320 320 321 323 323 323 326 334 339 340 342 345 350 352 351 351 350 349 348 348 348 348 347 347 346 345 347 347 345 343 342 341 339 337 337 337 338 340 341 341 343 343 343 342 343 343 343 343 343 342 341 340 339 338 338 337 335 333 332 331 327 323 325 330 330 325 318 314 314 318 321 323 322 320 322 323 324 327 331 333 334 333
317 318 318 314 312 312 313 314 316 321 323 322 321 321 320 319 319 318 320 320 321 324 332 338 338 340 342 349 352 351 351 350 350 349 349 349 348 348 347 347 346 347 346 344 343 342 342 340 338 338 337 338 339 340 341 342 343 342 342 342 343 343 342 342 341 340 340 339 338 337 335 334 332 331 330 326 324 329 333 335 332 325 317 314 315 317 319 319 317 316 321 325 330 332 332 333 333
317 318 318 315 315 316 316 315 317 320 320 322 320 321 321 319 319 319 319 320 321 323 329 337 340 343 341 348 352 351 351 351 352 349 349 349 347 348 347 347 346 346 345 344 344 343 343 341 341 339 336 337 337 339 340 341 342 342 341 342 342 342 342 341 341 340 339 338 337 336 334 333 332 331 328 326 329 333 335 335 334 331 324 318 316 317 317 316 314 315 322 328 331 332 332 333 333
318 318 318 316 318 317 316 315 317 317 317 321 322 321 323 322 321 322 321 319 321 323 327 339 341 344 347 351 352 350 352 351 351 350 349 348 347 347 347 347 345 346 345 344 345 344 344 342 342 339 337 338 337 338 339 340 340 341 341 341 341 341 341 340 340 339 338 338 337 336 335 335 335 333 329 327 331 334 335 334 334 333 330 323 317 318 318 317 317 318 325 329 331 332 332 333 333
317 317 318 317 317 316 317 316 317 316 316 323 322 322 324 324 325 324 323 319 320 323 331 341 340 343 349 351 351 350 352 351 351 350 349 348 347 347 347 347 346 346 345 345 344 344 345 343 343 340 340 340 338 338 338 338 339 340 340 340 341 341 340 339 339 338 337 337 336 336 336 336 336 335 332 328 329 331 333 334 333 333 333 326 318 317 319 320 321 323 328 330 331 332 332 333 333
318 318 318 316 314 313 316 319 318 315 317 322 320 321 322 323 330 328 324 321 320 327 334 340 340 342 344 345 348 351 351 351 350 349 349 348 348 347 346 347 345 345 345 345 344 344 345 344 343 342 342 341 340 339 336 337 338 340 340 340 340 340 339 338 337 336 334 335 335 334 335 336 335 336 336 331 328 329 332 333 331 330 332 328 319 316 319 321 323 325 328 330 330 332 332 332 333
317 318 317 314 313 312 316 319 318 316 319 322 320 321 320 322 332 330 326 323 321 331 334 337 341 341 341 341 348 352 351 350 350 349 349 348 348 347 346 346 345 346 344 344 344 344 345 343 342 342 342 341 340 339 337 337 337 338 340 340 339 338 337 334 333 334 334 334 332 332 335 337 336 337 338 335 332 331 330 329 328 328 329 329 323 318 316 319 323 325 327 329 330 331 332 333 332
317 317 316 313 314 315 317 319 319 319 320 321 319 321 319 321 331 331 327 323 323 331 334 338 344 343 345 348 351 351 350 349 349 349 348 348 348 347 346 346 344 344 343 343 343 343 343 342 341 340 341 341 340 339 337 336 335 337 338 339 340 337 333 332 336 338 338 335 332 334 336 336 336 336 337 335 336 338 332 327 329 328 327 328 328 324 319 317 318 322 325 326 329 329 332 335 335
316 317 315 314 317 317 319 320 320 319 320 321 319 320 320 320 329 332 328 324 324 332 337 343 345 346 348 350 351 350 349 349 350 349 349 348 347 347 346 345 344 344 343 343 342 342 341 341 341 340 340 339 338 338 337 336 335 336 336 338 340 338 335 336 339 339 338 337 335 337 337 338 339 338 337 334 335 337 332 327 327 327 328 328 327 329 327 323 320 319 320 323 326 327 330 336 337
317 317 315 315 318 319 319 320 319 319 319 321 320 319 320 321 327 332 329 325 325 332 339 343 344 346 348 348 349 350 349 350 350 349 348 347 347 347 345 344 344 343 343 342 342 340 340 339 340 339 338 337 337 337 336 336 335 335 335 336 338 339 338 338 338 337 336 337 337 338 340 340 341 339 338 336 335 335 334 332 332 330 332 330 328 333 334 332 329 327 324 320 321 325 331 335 334
317 315 316 317 318 319 319 319 318 319 319 319 320 319 319 321 326 332 330 325 327 332 339 342 343 345 347 348 348 350 350 350 350 348 347 346 346 345 344 344 343 343 342 341 341 339 338 338 338 338 336 335 336 336 335 334 335 335 337 337 338 338 337 337 337 336 336 337 339 340 340 340 340 340 340 340 339 339 338 338 338 336 338 335 332 336 337 335 335 336 334 328 325 328 332 334 333
317 316 316 318 320 319 319 319 317 318 319 318 319 319 321 323 327 332 330 328 331 331 336 340 341 344 347 347 347 350 349 349 348 347 346 346 345 344 344 344 342 341 340 340 338 337 337 336 336 336 335 335 335 334 333 334 335 337 338 339 338 337 337 337 336 336 338 340 340 340 340 341 341 340 341 341 341 340 339 339 339 339 340 338 337 338 337 336 335 336 336 334 332 332 331 331 333
317 317 317 317 319 319 318 318 318 317 317 318 318 318 324 330 331 332 331 330 336 336 336 339 340 344 346 346 347 347 347 347 347 346 345 345 345 344 343 342 341 339 338 336 337 337 336 336 335 335 336 336 335 335 335 334 336 338 339 338 337 337 337 337 338 338 339 341 340 340 341 342 342 342 342 342 342 341 340 339 339 339 339 339 341 339 338 337 336 335 335 335 334 333 332 332 333
318 317 318 318 318 319 319 318 317 317 317 318 319 318 323 331 334 332 330 332 339 341 341 341 341 343 344 343 344 344 345 346 346 346 345 344 344 343 342 341 338 336 335 334 335 336 336 336 335 336 336 336 336 336 334 334 336 338 338 338 337 337 337 337 337 338 339 340 340 341 342 342 342 341 342 342 342 341 340 340 340 340 339 339 340 340 339 338 337 337 336 335 334 333 334 334 334
317 317 319 319 319 319 319 319 318 317 318 318 319 318 319 327 333 332 332 336 341 342 341 339 339 341 343 343 343 345 345 346 346 345 345 344 343 342 340 338 335 334 334 334 334 336 336 336 335 335 336 336 336 336 335 335 337 338 338 338 338 338 337 337 338 339 340 341 341 342 342 342 342 342 341 341 341 341 341 341 341 341 340 340 340 340 339 339 339 339 338 337 335 334 334 334 335
317 318 318 319 319 318 318 317 317 317 318 318 318 318 318 323 332 335 337 342 344 342 339 338 338 340 344 344 344 345 344 345 347 346 344 343 342 341 339 336 335 334 334 334 335 336 336 335 335 336 336 336 337 336 336 338 339 338 339 339 339 339 339 340 340 342 342 342 343 342 342 341 342 342 342 341 340 341 341 341 341 341 341 341 341 340 340 340 340 339 339 338 337 337 336 335 335
318 318 317 318 319 318 318 316 317 317 318 318 318 319 319 322 333 339 342 346 345 344 342 342 341 341 343 343 344 346 346 347 347 346 344 342 341 339 337 335 334 335 335 336 336 336 337 336 337 337 337 337 337 337 338 339 340 339 340 340 341 341 342 342 342 343 342 343 342 341 342 341 341 341 341 340 340 340 340 340 341 341 341 341 340 340 340 340 340 339 340 339 339 339 338 338 337
318 318 316 317 317 319 318 316 318 318 318 319 318 320 321 326 335 341 346 346 343 344 345 344 344 344 344 344 345 346 346 346 346 344 343 342 341 339 337 336 334 335 336 336 337 338 338 338 338 338 338 338 338 338 340 341 341 341 341 341 341 342 342 342 342 343 342 342 341 340 340 340 340 340 339 339 340 341 341 341 341 341 340 340 340 341 340 340 339 339 339 339 340 340 339 340 339
317 317 317 316 317 318 317 317 317 317 318 319 320 323 322 330 340 343 343 346 345 344 344 344 345 345 346 345 343 345 345 345 345 344 344 343 340 339 337 336 335 336 337 337 339 339 340 340 339 339 339 340 340 340 342 342 342 341 340 341 342 342 343 343 342 342 341 340 340 339 339 339 339 339 339 339 340 341 341 341 340 340 341 340 340 340 340 340 340 339 339 339 338 338 338 338 339
316 316 316 316 316 317 317 318 316 318 318 319 322 317 319 337 344 340 338 340 343 342 343 344 343 343 346 345 340 341 343 342 342 341 342 342 340 339 337 336 336 336 338 339 340 341 342 342 342 342 342 343 342 340 341 343 342 340 340 341 342 343 343 342 341 341 340 340 340 339 339 339 339 339 339 340 340 340 340 341 341 340 340 340 340 340 340 340 339 340 340 339 339 337 337 337 338
316 316 316 316 312 312 318 318 316 318 316 321 323 314 325 346 342 340 339 336 336 336 338 339 338 337 339 341 337 337 338 336 337 337 339 341 340 339 338 337 337 338 340 341 343 344 343 343 343 341 341 342 342 340 341 342 341 340 340 342 342 342 342 341 341 341 341 340 340 340 339 339 339 339 339 340 341 341 341 341 341 340 340 340 340 340 340 340 340 340 340 339 339 338 338 337 337
316 313 311 312 311 312 318 317 316 319 317 321 321 316 334 347 338 338 339 337 338 337 338 337 337 339 337 338 337 334 334 333 334 337 337 337 338 340 340 338 338 339 340 341 343 341 341 341 341 339 339 341 339 339 340 341 342 341 341 342 343 342 342 341 341 341 340 339 339 339 339 339 339 339 339 339 341 341 340 340 341 341 341 340 341 341 340 340 341 341 340 340 340 340 339 339 338
315 312 309 310 310 311 315 316 317 318 317 322 321 322 339 345 338 336 339 340 341 338 338 338 338 340 339 337 336 335 336 335 334 335 335 335 336 338 339 337 337 338 338 339 340 339 339 339 339 339 339 337 335 336 339 340 341 342 342 342 341 341 341 341 340 340 340 339 339 339 339 338 339 339 339 339 341 341 340 340 340 341 341 341 342 342 341 341 341 341 341 340 340 339 338 338 339
311 312 309 310 312 310 312 315 318 317 318 324 322 327 341 343 339 338 340 341 341 339 339 340 339 339 338 337 337 336 337 337 335 335 334 334 335 336 337 337 337 338 339 339 337 338 339 338 337 338 338 336 335 336 338 339 340 340 341 341 340 340 340 341 340 340 339 339 339 338 338 338 338 338 339 339 341 340 339 340 340 339 339 339 340 341 340 340 340 340 341 340 339 338 337 337 338
310 310 309 310 312 311 311 314 318 317 318 325 323 330 341 342 339 339 341 341 341 341 340 340 340 340 338 338 338 337 337 336 334 335 334 334 335 335 336 336 337 337 337 337 336 337 337 337 337 337 337 337 336 336 337 340 340 340 340 340 340 340 339 339 339 338 338 338 338 337 338 338 337 338 338 338 338 338 338 338 338 338 337 337 338 338 338 339 339 339 339 339 339 337 337 337 337
312 312 310 310 310 311 314 316 318 317 318 324 323 331 340 342 339 341 342 342 342 342 341 341 341 341 339 338 338 338 337 335 334 335 334 334 335 335 336 335 335 336 336 336 335 334 335 336 337 337 337 337 336 336 337 340 341 340 340 339 339 338 338 338 338 337 337 337 337 337 337 337 337 337 337 337 337 337 337 337 336 336 337 337 337 337 337 337 337 337 337 337 337 337 337 337 337
316 314 312 312 311 311 315 319 318 318 319 322 324 334 341 343 342 343 342 342 343 342 343 342 341 341 340 339 339 338 336 334 335 335 334 334 334 335 336 335 335 335 335 335 333 332 334 335 336 337 337 337 336 335 336 339 341 340 339 338 338 338 337 337 337 337 337 336 336 336 336 336 336 336 336 336 336 336 336 336 336 336 337 337 337 337 336 336 336 336 335 335 335 336 336 337 338
315 314 312 311 312 313 318 321 319 317 321 320 322 337 341 343 340 339 340 341 343 343 343 342 340 340 340 340 340 337 335 334 335 335 335 336 334 334 335 334 336 335 334 334 333 333 335 335 335 337 337 336 336 334 335 339 340 339 338 338 337 337 337 337 336 336 335 335 335 334 335 335 335 335 334 335 335 335 334 335 335 335 335 335 335 335 334 334 334 334 335 335 335 335 335 336 337
316 315 312 309 312 315 318 322 322 319 321 321 324 336 339 341 337 336 337 339 341 342 342 341 340 340 340 342 340 337 336 336 335 335 336 336 335 334 333 334 335 335 334 334 334 335 335 335 335 336 336 335 336 335 336 339 339 338 338 337 337 336 336 336 335 334 334 334 333 332 333 333 333 333 332 332 332 332 332 332 332 332 332 331 332 332 331 332 331 332 332 333 334 334 334 334 335
316 315 311 309 312 313 312 318 323 322 321 326 330 335 339 340 338 337 337 337 339 341 341 341 341 340 341 341 340 338 337 337 336 335 335 335 335 334 334 334 334 334 335 333 334 335 335 335 335 334 335 336 336 337 337 338 338 337 337 336 336 335 335 334 334 333 333 333 332 330 330 330 330 330 329 329 329 329 329 330 330 330 329 329 329 329 329 329 329 329 329 330 332 332 332 333 333
315 316 313 311 314 314 315 320 323 322 321 328 334 331 334 340 341 340 338 337 339 340 341 342 340 339 339 340 339 338 338 337 336 335 335 335 335 334 334 333 334 334 333 333 334 335 333 334 334 333 335 337 337 337 337 337 337 336 336 336 336 335 335 334 333 333 332 331 330 328 327 327 326 326 325 325 325 325 326 326 327 327 327 327 327 327 327 327 327 328 327 328 329 330 330 330 331
313 315 315 314 316 317 320 322 320 317 317 324 333 326 326 335 340 343 341 338 339 340 340 340 340 338 338 340 338 337 338 337 336 335 334 335 334 334 333 333 333 333 332 332 333 333 333 333 334 334 335 335 335 335 336 335 335 335 335 335 336 336 334 333 332 331 330 329 328 326 324 323 323 322 322 322 322 322 322 323 324 324 325 325 324 325 325 325 325 325 325 326 326 327 327 328 329
310 314 316 316 318 319 319 320 318 313 313 322 331 324 321 328 335 342 344 341 342 341 338 338 339 339 338 338 336 336 337 336 336 335 334 334 334 333 333 332 331 330 330 331 331 332 333 333 333 333 333 332 333 332 333 334 334 333 334 334 334 334 333 331 329 328 328 327 326 325 323 322 321 321 320 320 320 320 321 321 321 322 322 322 322 322 323 322 322 323 322 323 323 324 324 325 326
310 314 316 316 318 319 319 319 318 316 315 323 328 322 319 322 329 338 343 342 343 342 339 335 337 338 336 336 335 334 335 335 335 334 334 334 334 333 332 330 330 328 328 329 330 331 332 332 332 331 331 330 330 330 331 331 331 331 331 331 331 332 331 329 327 326 325 325 325 323 322 321 320 319 319 319 319 319 319 319 319 319 319 319 319 320 320 320 320 320 320 321 322 322 322 323 324
313 316 316 317 319 318 322 320 318 316 314 316 322 321 317 317 326 337 341 342 343 342 341 337 335 336 335 335 335 333 333 335 334 333 334 335 334 333 331 330 328 327 327 327 328 329 330 330 330 329 329 328 328 328 328 328 329 329 329 330 329 329 328 326 326 325 325 324 324 322 320 320 319 318 317 317 317 317 317 317 317 317 317 317 317 317 318 318 318 318 318 319 319 319 320 320 320
315 317 316 318 319 320 324 321 316 315 313 313 317 320 316 314 326 338 337 337 342 342 342 338 335 335 336 335 334 333 333 334 333 333 335 335 333 332 330 328 326 326 325 326 327 328 328 328 328 327 327 326 325 326 326 326 326 327 327 328 327 327 325 325 324 324 324 323 323 321 320 319 318 317 316 316 316 316 315 315 316 316 315 316 316 316 316 316 316 317 317 317 317 317 317 317 318
316 316 316 317 319 321 321 319 315 313 312 313 316 320 318 314 322 335 335 334 339 340 340 340 337 336 335 336 334 333 333 334 333 333 333 332 331 330 328 327 325 324 324 325 326 326 327 326 326 325 324 324 324 324 324 324 324 324 325 325 325 325 324 324 323 323 323 322 321 320 319 318 316 315 315 315 315 315 315 314 314 314 314 314 315 315 315 315 315 315 315 315 315 315 314 314 316
316 316 314 313 314 317 317 316 315 313 310 313 316 320 320 314 317 330 334 332 334 335 337 340 338 337 336 336 334 332 332 333 331 330 330 329 329 328 328 326 325 324 324 325 326 325 325 325 324 324 323 323 322 322 322 322 322 322 322 322 322 322 322 322 322 321 321 321 320 319 318 316 316 314 314 314 314 313 313 313 313 313 313 313 314 314 313 313 314 314 313 313 313 312 312 313 314
316 315 311 310 312 314 316 315 313 312 312 314 317 318 319 316 319 330 334 330 329 331 334 337 338 337 336 335 333 331 332 333 331 329 326 327 328 327 327 326 325 325 325 325 325 325 324 323 323 322 321 321 321 321 321 321 321 321 320 320 319 319 320 319 320 319 320 319 319 318 317 316 314 314 313 313 312 312 312 311 312 311 311 312 312 313 313 313 313 313 311 311 311 310 311 311 312
314 313 310 310 312 314 317 315 314 314 313 314 316 316 315 316 320 330 332 329 330 329 331 334 337 338 336 334 332 331 333 332 330 328 326 326 328 327 326 325 324 325 325 325 324 323 323 322 322 321 320 320 320 319 319 319 319 319 319 319 318 318 317 317 318 318 318 317 317 316 315 314 313 313 312 311 312 311 310 310 310 310 310 310 311 311 312 312 312 312 311 311 311 311 311 311 311
313 315 314 311 310 313 315 313 312 314 313 313 315 315 313 313 320 329 329 327 329 328 330 332 335 337 335 333 332 331 332 331 330 329 328 328 328 327 326 325 325 325 324 324 323 323 322 321 321 320 320 319 319 318 318 318 317 317 317 317 316 316 316 315 316 316 316 316 315 314 314 313 312 311 311 310 310 310 309 308 308 309 309 309 310 310 311 311 311 311 311 310 311 311 311 311 310
313 316 314 310 312 313 312 313 314 313 312 312 313 314 316 321 327 330 328 327 328 329 331 332 335 337 335 333 333 332 331 331 330 329 329 329 329 328 327 326 325 325 324 323 323 322 322 321 320 319 319 318 318 317 316 316 316 315 315 315 314 314 314 314 314 314 314 314 313 313 312 312 311 311 309 309 308 308 308 308 307 307 308 308 308 308 309 310 310 310 309 309 310 310 310 310 310
312 312 310 313 316 315 311 312 316 313 311 313 313 315 320 326 331 332 329 329 328 331 335 335 336 337 335 334 334 332 330 330 330 330 329 329 329 328 327 326 325 325 324 323 322 321 321 320 319 318 318 317 317 316 315 315 314 314 314 313 313 313 313 313 313 312 312 312 312 311 311 310 310 309 308 308 308 307 308 307 307 306 306 307 308 307 307 308 308 308 308 307 308 309 309 309 309
312 309 311 315 317 316 313 311 313 313 311 313 314 316 317 318 324 330 330 331 330 332 336 335 336 336 335 335 333 332 331 330 329 329 328 328 329 328 327 326 325 324 323 322 321 320 319 319 319 318 317 317 316 315 314 313 313 312 312 312 312 312 312 312 312 312 311 311 311 310 310 309 309 308 308 307 307 307 307 307 306 306 306 306 306 307 306 306 306 306 306 306 306 306 307 307 308
313 312 314 315 312 312 311 311 313 313 312 313 315 316 315 314 319 326 329 330 331 331 332 333 335 337 335 335 333 333 332 331 330 327 327 327 328 327 326 324 324 323 322 320 320 319 319 319 318 317 316 316 315 314 313 312 312 312 312 311 311 311 311 311 311 311 310 310 310 310 310 309 308 308 308 307 307 306 306 306 306 306 305 305 305 306 305 305 305 305 305 305 305 305 306 306 306
314 314 314 314 312 311 310 311 312 312 312 313 314 315 314 315 322 327 327 329 330 330 331 333 335 336 335 333 334 334 333 331 329 327 326 327 327 326 324 323 322 321 320 320 319 319 318 318 317 316 315 314 313 313 312 312 311 311 311 310 310 310 310 310 310 310 310 310 309 309 308 308 307 307 307 307 307 306 306 306 305 305 305 305 305 305 305 305 305 305 304 304 304 304 305 305 305
311 311 311 312 313 313 313 313 312 311 311 312 313 312 313 319 328 329 327 327 328 329 330 331 334 335 334 333 333 334 333 330 328 327 326 326 325 324 323 322 321 321 320 319 319 318 318 317 316 315 314 313 312 312 311 311 310 310 310 310 309 309 309 309 309 309 309 309 308 308 307 307 307 307 306 306 306 306 305 305 304 304 304 304 304 304 304 304 305 304 304 304 304 304 304 305 305
311 311 311 311 312 312 312 312 311 310 310 310 311 310 313 326 334 327 326 328 326 326 329 330 333 334 333 333 333 333 331 329 327 326 325 325 324 323 322 321 320 320 319 318 318 318 317 316 315 314 313 313 312 312 311 310 310 309 309 309 309 309 309 309 308 308 307 307 307 307 306 306 306 306 306 306 306 306 305 305 304 303 303 303 303 303 304 304 304 304 304 304 304 304 304 304 304
Wind_Speed
8 10 10 10 11 15 11 5 5 4 6 9 9 9 8 2 5 9 8 6 4 4 6 9 7 6 7 9 3 12 12 8 4 2 2 7 13 17 19 22 23 22 21 19 19 19 18 17 17 17 17 17 17 17 16 16 16 15 15 15 15 17 16 16 14 12 12 11 11 11 11 12 12 12 12 12 12 12 12 12 12 12 13 13 13 13 13 13 12 12 12 12 12 12 12 13 13
8 10 9 9 11 12 6 3 6 7 8 9 9 10 7 3 5 7 6 8 7 7 8 8 6 6 6 8 3 7 12 13 9 7 9 14 16 17 21 22 22 22 20 19 19 19 18 18 18 19 19 18 18 18 18 17 17 17 16 17 17 18 16 15 13 12 12 11 12 11 11 12 12 12 12 12 12 13 13 13 13 12 12 13 13 12 12 12 11 11 11 11 11 10 10 10 11
6 9 9 8 9 8 5 4 7 9 9 9 9 9 8 8 8 7 8 8 8 7 7 5 5 5 6 7 2 6 8 11 12 11 10 16 15 16 21 21 23 22 20 20 19 18 18 19 20 20 20 19 19 19 19 19 18 18 17 17 16 16 14 13 12 12 12 12 12 12 12 12 12 13 13 13 13 14 13 13 12 12 12 12 12 12 11 11 11 10 10 9 9 9 9 9 9
5 7 8 7 6 5 5 5 7 9 10 9 8 10 9 6 7 6 5 7 6 5 5 5 3 2 6 5 4 8 8 7 10 10 9 15 16 18 21 21 23 21 20 19 18 18 18 20 21 20 20 20 20 20 19 18 17 17 17 16 15 14 13 13 12 12 12 12 12 12 12 12 13 13 13 13 13 14 13 13 12 11 11 11 11 11 10 10 10 10 9 8 8 9 9 9 8
7 8 7 6 5 3 5 5 7 9 9 9 8 13 9 4 3 2 3 5 3 3 4 5 2 3 3 8 4 3 4 5 10 11 12 17 19 21 21 21 22 20 19 19 18 17 18 20 21 20 20 20 21 20 18 17 16 16 15 15 14 14 13 13 13 13 12 13 12 12 13 13 13 13 13 12 11 11 11 11 11 10 9 9 10 9 9 9 9 9 8 8 8 9 9 9 8
9 8 7 7 5 3 5 6 9 10 10 11 10 14 10 4 3 2 2 2 2 2 4 5 3 3 7 8 7 6 4 4 9 11 15 19 21 22 20 20 20 19 19 18 18 17 19 21 20 20 20 21 21 20 18 17 16 15 15 14 14 14 13 13 13 13 13 13 13 13 13 13 12 12 11 10 9 8 8 8 8 8 8 8 8 8 8 8 7 8 8 7 8 9 9 8 8
8 7 6 7 5 4 7 9 11 11 12 14 12 14 12 5 3 4 5 3 3 3 3 4 3 2 6 6 7 9 9 7 9 11 17 20 22 22 20 19 19 19 19 17 18 18 19 20 20 20 20 19 19 19 18 17 16 15 14 14 14 14 14 13 14 13 13 13 13 12 12 12 11 11 10 9 8 8 8 7 6 5 6 6 6 6 6 6 7 7 6 6 7 8 9 8 8
8 6 4 5 6 5 8 10 11 11 12 15 14 13 14 6 1 6 6 4 3 2 3 4 6 3 4 5 5 6 9 11 12 16 20 21 21 21 19 19 19 19 18 18 19 19 19 20 20 20 20 18 18 19 18 17 16 15 14 14 14 14 14 14 14 13 13 13 12 12 11 11 10 10 9 9 8 8 8 7 6 4 3 4 4 5 4 4 6 6 5 5 6 7 8 8 8
9 7 4 6 7 8 10 11 12 12 13 17 15 11 9 6 4 6 7 6 4 4 4 4 5 3 6 6 7 6 8 12 16 19 19 20 20 19 18 18 19 19 19 19 20 19 18 19 20 19 19 18 18 18 17 16 15 14 13 13 14 14 14 14 13 13 13 13 12 12 11 10 9 9 8 8 8 7 7 7 6 4 3 3 3 3 3 3 5 4 4 5 6 7 8 8 8
7 7 5 7 7 10 11 12 12 11 15 16 12 8 5 7 8 8 8 9 5 4 3 2 3 8 9 7 7 5 9 14 17 17 18 19 18 18 18 18 20 20 20 20 20 19 18 18 19 20 19 18 18 18 17 16 14 14 13 13 14 14 14 13 13 13 12 12 11 10 10 9 8 8 7 7 7 6 7 8 8 6 4 2 3 3 2 3 4 4 3 5 5 6 7 7 7
6 6 6 7 9 11 10 12 12 12 17 10 5 6 4 7 9 9 10 9 6 5 4 3 5 11 11 8 6 6 12 16 17 18 18 17 17 18 18 19 20 20 20 21 21 20 19 18 18 20 19 19 18 18 18 16 14 14 13 13 13 13 13 13 13 12 12 11 10 9 8 8 8 7 6 6 6 7 8 8 9 8 6 4 3 3 3 3 3 4 5 6 6 6 7 7 7
7 7 6 8 10 11 11 13 12 15 15 5 6 8 5 7 9 9 10 9 8 7 6 6 6 11 10 7 5 8 14 15 18 18 17 17 17 18 18 19 19 19 21 22 22 21 20 18 17 18 19 20 19 19 18 16 14 14 14 13 13 13 13 13 12 12 11 10 9 8 8 8 7 6 6 6 7 8 9 8 7 8 7 6 5 4 3 3 4 5 6 6 5 5 6 6 6
8 9 8 9 10 11 14 14 13 15 11 7 8 6 5 6 8 9 9 10 9 9 8 7 7 11 8 7 7 9 14 15 18 17 16 17 16 18 18 18 18 19 20 21 22 22 21 19 18 17 18 19 18 18 16 15 14 13 13 13 13 13 12 12 12 11 10 9 8 8 7 8 7 6 6 7 8 8 8 6 6 8 8 6 5 5 4 4 5 6 7 6 5 4 5 5 4
8 8 8 9 9 12 13 12 13 12 11 11 5 9 6 6 7 8 8 10 10 10 7 8 9 11 9 7 8 9 12 16 18 16 16 16 16 17 17 18 18 18 19 20 22 22 21 20 19 18 18 17 16 16 14 14 13 13 13 13 13 13 12 12 11 10 9 8 8 7 7 7 7 6 6 6 8 8 7 6 6 6 7 7 5 5 5 6 6 7 7 5 4 4 4 4 3
9 7 8 9 9 12 12 11 14 13 11 5 5 8 6 6 5 7 9 10 10 9 5 10 9 7 10 9 8 11 16 19 19 17 16 16 16 17 17 18 18 17 18 19 20 21 21 20 19 18 18 17 16 15 13 12 12 12 12 12 13 13 12 11 10 9 8 8 7 8 7 6 7 6 5 5 6 7 7 6 5 6 6 6 5 5 6 7 7 7 7 5 3 3 4 4 3
8 7 7 8 10 12 11 12 12 14 10 4 7 4 5 6 6 7 8 10 8 7 5 8 8 6 10 10 10 19 22 22 20 19 19 18 17 16 17 17 17 18 18 18 18 20 20 18 18 18 18 18 17 16 14 12 12 12 12 12 12 12 12 10 8 7 7 7 7 8 6 5 5 5 5 5 3 5 6 5 5 6 6 7 6 5 6 7 7 7 6 5 3 2 3 3 3
6 8 8 8 11 12 11 13 11 11 8 7 6 6 5 6 7 7 6 11 10 8 7 7 8 8 8 9 18 27 26 24 22 22 21 20 18 16 17 17 18 18 17 17 18 18 18 17 17 17 17 17 17 16 14 12 12 12 11 11 12 12 10 8 7 6 6 5 5 7 6 4 3 2 4 4 2 1 2 3 4 6 6 7 8 7 5 4 6 6 5 4 3 1 2 1 1
7 7 9 9 10 12 12 15 11 9 7 6 4 3 5 6 6 7 6 11 12 9 11 7 10 11 14 18 26 29 27 26 24 23 22 20 19 17 17 17 17 17 16 16 17 17 17 16 16 16 17 17 16 15 13 12 13 13 11 11 11 10 9 8 7 6 6 4 4 5 4 4 4 3 3 2 3 2 1 2 3 4 5 6 7 8 7 4 3 4 4 4 3 2 0 2 2
9 7 9 10 10 12 11 11 5 4 5 4 3 1 4 6 3 6 8 12 13 12 11 11 12 13 17 22 26 26 27 26 24 23 21 20 19 17 17 17 17 17 16 16 16 15 15 14 13 14 15 14 14 13 12 13 13 13 13 11 10 9 8 7 7 6 5 5 4 5 5 4 4 5 5 4 5 3 2 2 2 2 4 4 4 6 7 6 3 1 3 4 5 4 4 6 6
10 9 9 10 13 10 4 5 2 2 3 1 3 2 3 6 4 6 10 13 15 14 12 13 12 14 15 18 22 24 25 25 23 22 20 20 19 18 17 17 16 16 16 16 15 14 13 13 13 12 13 13 12 12 12 13 13 13 13 12 10 10 8 7 6 5 5 5 5 5 5 4 4 4 4 4 5 4 2 3 3 2 2 3 3 2 4 5 4 2 1 2 5 6 7 8 7
9 10 10 10 12 9 3 5 5 3 2 3 3 4 6 7 7 8 10 13 14 13 13 14 16 17 17 18 19 22 23 23 22 21 20 20 19 19 17 17 16 16 16 15 15 13 13 13 13 13 13 12 12 12 13 13 12 12 13 12 11 9 8 7 6 6 6 5 5 5 4 3 2 2 1 2 4 4 2 1 2 3 2 2 3 1 2 2 2 2 2 2 5 8 8 7 6
9 12 15 13 6 5 5 6 5 3 3 6 6 7 7 6 9 9 12 12 8 10 15 17 17 18 18 18 19 20 20 19 20 20 20 20 19 19 17 17 17 16 16 15 14 13 13 14 14 14 13 12 12 12 12 12 12 12 13 12 11 9 8 7 7 7 7 5 4 3 3 2 1 1 1 0 1 3 3 3 2 2 1 1 2 2 3 3 3 5 5 3 5 7 8 7 7
10 11 15 15 6 5 5 5 5 5 7 9 7 7 5 6 9 9 13 10 1 4 13 19 18 18 18 18 19 19 19 18 19 20 21 21 20 19 18 18 18 17 16 15 15 14 14 14 14 14 13 13 12 13 13 13 12 11 12 11 10 9 9 8 7 6 6 4 3 2 2 1 0 0 0 1 1 1 1 1 1 1 1 1 1 3 3 3 4 4 4 5 5 6 7 7 7
12 11 12 13 9 8 5 4 6 7 9 8 6 5 5 10 9 8 12 8 5 4 11 18 17 18 19 18 18 18 18 19 19 20 21 20 20 19 18 18 17 17 16 16 16 15 15 15 15 15 15 14 14 14 14 13 12 12 11 10 9 9 9 8 7 6 5 4 3 2 1 0 0 1 1 1 2 2 2 3 2 1 2 2 1 4 4 3 3 4 4 5 6 7 7 6 7
14 13 10 9 10 10 8 6 7 9 9 7 8 9 9 11 8 9 11 7 8 7 11 16 17 18 18 18 18 17 18 19 20 20 20 19 20 19 18 18 17 17 17 16 16 16 16 16 16 16 16 16 15 15 14 13 12 12 11 10 10 9 8 7 7 6 4 3 2 1 0 0 0 1 1 1 1 2 2 2 2 2 2 2 2 3 4 4 4 4 5 5 7 7 7 7 7
14 16 11 7 9 11 10 10 10 9 8 8 11 11 10 11 9 9 8 7 7 8 11 16 19 19 17 16 17 18 18 18 19 19 19 20 20 19 18 17 17 17 17 17 16 17 17 17 17 16 16 16 16 15 14 13 13 13 12 11 11 9 7 7 6 5 4 3 2 1 1 1 0 0 1 1 1 1 1 1 1 1 1 2 2 3 3 4 4 5 5 6 7 7 7 7 7
8 15 15 10 9 9 10 12 12 10 9 10 11 12 11 11 10 7 6 8 7 8 11 14 17 17 16 16 17 17 16 17 19 19 19 19 19 18 18 17 17 17 17 17 17 17 17 17 17 16 16 16 16 15 14 14 14 13 13 12 11 9 8 7 6 5 4 3 2 2 1 1 0 0 1 1 1 1 1 0 1 1 1 1 2 3 3 3 4 5 5 6 7 8 9 8 8
5 11 15 13 10 9 10 12 12 10 10 11 12 12 10 10 10 6 6 6 8 10 11 12 14 15 16 17 16 13 13 15 19 19 18 18 17 17 17 16 17 18 17 16 16 16 16 17 17 17 16 16 15 14 14 14 13 13 13 12 10 9 8 7 6 5 5 4 3 3 2 1 1 0 1 1 1 1 1 1 1 1 1 2 2 3 3 4 4 5 5 6 6 7 8 8 9
9 9 13 14 13 12 12 12 12 11 10 12 12 11 11 11 4 7 9 5 2 9 10 11 12 12 15 15 11 9 12 14 15 15 16 17 16 16 17 16 17 17 16 15 16 17 16 16 16 15 15 14 13 14 15 14 13 13 13 12 10 9 8 7 7 6 6 5 4 4 2 2 1 1 1 1 1 1 1 1 1 2 2 2 3 4 4 4 4 5 5 5 6 6 8 8 9
10 10 10 12 12 13 15 14 14 14 11 12 12 10 10 5 10 14 11 8 9 7 5 4 3 1 5 8 7 4 8 9 7 7 9 13 14 15 16 15 16 15 14 14 15 15 14 13 13 13 14 13 13 15 15 13 13 13 12 11 9 9 8 7 7 6 6 5 4 4 3 2 2 1 1 1 1 1 1 2 2 2 3 3 4 4 5 5 5 5 5 6 6 6 8 8 9
10 11 10 10 10 11 16 16 16 16 12 13 13 10 4 8 14 12 10 11 14 12 9 10 8 5 5 6 6 4 7 8 3 2 4 6 12 14 14 14 11 11 13 12 13 12 10 10 9 9 11 11 12 13 12 11 11 12 12 10 9 9 8 7 7 6 5 4 4 4 3 2 2 1 1 1 2 2 2 2 2 2 3 4 4 5 5 5 5 5 6 6 7 7 8 9 9
10 11 9 11 10 10 16 19 18 17 12 15 15 8 4 9 8 5 5 12 15 12 8 7 9 7 5 7 7 7 7 8 7 4 6 10 14 14 10 9 8 8 9 8 10 10 8 8 7 7 8 8 9 10 10 11 10 10 11 11 10 9 8 7 7 6 5 5 5 5 4 3 3 2 2 2 3 3 3 3 3 3 4 4 4 5 6 5 5 6 6 7 8 8 9 9 10
11 11 10 12 12 11 13 18 19 18 13 15 17 8 6 7 5 3 5 8 12 11 10 10 11 10 8 8 9 9 8 9 7 9 13 14 16 13 12 12 12 8 9 7 8 9 7 6 5 7 10 7 7 9 10 12 12 11 11 11 11 10 8 8 7 7 6 6 6 6 5 5 4 3 3 3 4 4 4 3 4 4 5 5 5 5 5 5 6 6 7 7 7 8 9 10 10
10 11 11 12 15 14 10 15 17 19 16 13 17 10 7 9 11 10 8 8 10 12 12 11 10 9 8 9 12 11 7 9 8 8 12 12 10 11 14 15 13 10 10 7 7 9 8 7 5 6 10 10 7 9 10 11 12 12 11 11 11 10 9 8 8 7 7 7 6 6 6 5 5 4 4 4 4 4 4 4 4 5 6 6 6 5 5 5 5 6 7 8 8 9 11 11 11
12 12 11 11 15 16 12 13 15 19 17 13 16 11 9 11 12 11 11 11 11 13 11 10 10 10 10 9 10 11 9 10 11 13 17 14 8 10 14 15 13 10 7 6 7 7 7 7 6 4 7 10 8 9 9 9 9 10 11 11 11 10 10 9 9 8 8 8 7 7 7 6 6 5 5 5 5 5 5 5 5 6 6 6 7 6 5 5 5 6 7 8 9 11 11 12 11
15 15 14 13 12 15 14 13 16 19 16 14 15 9 10 10 12 12 13 12 11 14 12 9 10 10 11 8 8 10 11 13 14 17 21 19 14 11 12 13 12 10 7 7 7 5 6 7 6 4 4 7 8 8 8 8 8 9 10 10 11 10 10 10 10 10 9 9 9 8 8 8 7 7 7 7 7 7 6 6 7 7 7 7 8 7 7 7 7 8 8 9 10 11 11 11 11
16 15 15 15 12 13 14 10 16 19 13 14 15 11 12 9 10 10 8 10 11 14 14 11 10 10 10 9 9 11 11 13 15 19 21 20 18 15 15 14 11 10 9 9 8 6 6 7 7 6 5 4 5 5 3 6 7 7 8 9 10 9 8 10 10 10 9 9 9 9 9 9 8 8 8 8 9 9 9 9 9 9 9 9 9 9 9 10 9 10 10 10 10 11 11 10 9
14 14 14 14 12 11 11 8 13 17 12 13 14 13 11 8 8 6 4 6 10 12 13 13 13 11 10 11 13 13 11 11 13 17 19 20 19 17 18 17 14 11 9 9 10 7 7 8 8 8 7 4 2 2 4 7 7 6 8 9 9 9 9 9 9 9 8 8 8 8 9 9 9 10 9 9 10 10 11 11 11 11 11 11 11 11 11 11 11 12 12 13 12 12 11 10 9
10 12 12 12 12 11 11 11 13 14 10 9 12 10 9 8 7 7 6 6 6 8 11 12 13 13 11 12 13 14 13 13 13 14 17 20 20 19 18 17 16 15 12 11 10 7 7 9 9 8 7 5 3 5 8 10 10 9 10 10 9 9 9 9 9 8 7 8 9 9 9 8 8 9 10 9 10 10 11 11 11 11 11 12 11 11 12 12 12 13 14 14 15 14 12 11 11
10 11 10 11 14 12 10 11 14 14 10 7 9 8 8 10 7 8 10 10 8 9 10 11 12 12 13 14 13 14 15 14 14 15 16 19 20 19 17 15 15 15 13 13 11 8 7 9 10 6 4 5 5 7 10 11 12 12 12 11 10 10 9 9 9 9 9 9 9 10 10 9 9 10 10 10 10 10 11 10 10 10 10 11 10 10 11 12 12 13 14 14 14 15 14 14 14
12 13 11 12 15 13 9 10 14 14 12 10 10 6 5 10 10 10 12 11 11 12 12 11 11 12 13 13 13 13 15 14 14 15 15 18 19 20 19 17 15 14 12 12 11 10 8 8 9 7 5 6 7 9 9 9 10 11 10 10 9 9 9 9 8 8 9 9 9 11 11 10 11 11 12 12 11 11 11 10 10 9 9 10 10 10 11 12 12 12 13 13 14 14 15 16 16
12 13 13 14 14 13 11 14 14 11 11 12 13 7 5 10 11 10 11 11 12 12 12 11 11 12 12 12 13 12 14 13 14 15 16 17 19 20 21 21 19 16 14 13 10 10 9 8 8 9 8 8 9 9 8 7 8 8 7 7 7 8 9 9 9 9 8 8 9 9 11 12 11 11 11 11 10 10 10 10 10 9 9 10 10 10 10 11 11 11 12 12 13 13 14 15 14
9 13 14 14 11 16 16 17 14 9 10 13 14 9 5 8 11 11 12 13 14 12 12 12 11 12 12 11 12 12 13 13 13 14 16 17 19 20 21 22 20 18 15 12 10 9 9 9 9 10 10 9 9 8 8 7 8 7 6 6 6 8 9 10 9 9 8 8 7 7 9 11 11 11 10 10 10 10 9 9 10 9 8 9 8 8 9 10 10 11 11 11 11 12 12 13 13
7 13 12 10 9 17 17 16 13 9 9 12 15 13 8 6 10 14 15 13 14 14 14 14 13 13 13 12 13 13 13 13 13 13 14 17 19 20 20 21 21 19 14 11 10 10 10 10 11 11 12 10 8 8 8 8 7 7 6 6 7 8 9 9 8 7 7 7 7 8 9 10 10 11 10 9 9 9 8 8 9 8 8 8 8 8 8 9 10 10 10 10 11 12 12 11 12
8 13 14 8 9 13 14 13 11 11 10 10 13 14 10 7 8 14 15 14 15 15 16 16 14 14 14 14 14 14 13 13 13 13 14 17 20 21 21 21 20 18 13 10 10 10 11 12 11 12 12 10 9 9 9 9 8 7 7 6 6 7 7 7 6 6 6 6 8 10 9 9 9 10 10 9 8 8 8 8 8 9 9 8 8 8 9 9 9 10 10 10 11 12 11 11 12
5 13 15 10 9 10 11 12 10 10 10 10 13 15 11 7 7 11 12 13 14 14 14 15 15 14 14 14 14 13 12 13 13 14 15 17 19 19 20 21 19 17 14 11 11 11 11 12 11 11 11 9 10 10 10 9 9 8 7 7 6 6 6 6 6 6 6 7 8 9 9 9 9 9 9 8 9 9 9 9 9 9 9 9 9 9 9 9 9 9 10 10 10 10 10 11 11
7 11 13 11 10 9 9 9 9 9 10 11 14 16 13 9 8 11 11 12 13 13 12 13 16 16 15 14 13 13 13 13 13 14 15 17 18 18 19 18 18 18 15 12 12 12 12 12 11 11 11 10 10 10 9 9 9 8 8 7 6 6 6 6 5 5 5 7 8 8 8 8 8 8 8 8 9 9 9 10 9 9 10 10 10 9 9 9 9 9 9 9 10 10 10 10 10
8 9 11 10 9 8 8 8 8 9 10 10 14 16 15 12 8 11 13 14 15 14 14 14 16 17 16 13 12 13 13 14 14 13 14 17 18 18 18 18 17 17 16 13 13 13 12 12 12 11 10 10 9 9 9 8 8 8 7 7 6 5 5 5 6 6 6 7 8 7 7 7 7 7 8 8 9 9 9 10 11 10 10 11 11 10 10 10 9 9 9 9 9 10 11 11 10
9 10 11 10 9 8 8 9 9 9 9 9 15 17 14 11 7 11 16 17 18 16 14 15 17 16 16 14 13 13 13 14 14 13 13 14 16 18 19 18 16 16 16 14 14 13 12 12 12 11 11 9 9 9 8 8 8 8 7 7 7 7 7 7 7 8 8 8 8 8 7 7 7 8 8 8 9 10 10 11 11 11 11 11 11 9 9 10 9 9 9 9 9 9 10 11 10
11 11 11 10 9 8 9 9 8 8 9 9 12 14 12 9 7 14 17 16 16 17 16 17 18 17 16 15 13 13 14 14 14 13 12 12 16 18 18 18 16 15 16 15 13 13 13 13 11 11 11 9 9 8 8 9 8 8 8 8 8 8 9 9 9 9 9 9 9 8 8 7 8 8 8 9 9 10 11 11 11 11 11 11 11 10 9 10 9 8 9 10 8 8 10 10 10
12 11 11 10 9 8 8 8 9 9 10 9 8 8 10 7 3 9 14 14 14 16 17 18 18 16 16 14 14 14 13 13 13 13 13 14 18 19 17 17 17 16 16 14 14 13 13 13 12 11 10 9 9 8 8 9 9 8 8 8 8 9 9 10 10 10 10 10 10 9 8 8 8 8 9 9 9 10 11 11 12 12 11 11 11 11 10 10 10 9 9 10 9 9 10 10 10
11 10 11 10 9 9 6 4 4 5 8 9 8 5 5 3 2 3 9 13 14 14 17 20 19 18 16 14 14 14 12 12 13 13 13 16 18 18 17 18 18 17 16 15 14 13 13 12 12 11 10 9 9 9 9 9 9 10 10 9 9 10 10 10 11 11 11 11 10 10 9 9 9 9 9 10 10 10 10 10 11 11 11 11 11 12 11 10 10 9 10 11 10 10 10 10 10
9 11 12 10 11 10 6 3 1 2 7 8 8 7 5 5 3 5 9 12 14 13 17 19 19 19 17 14 14 14 13 13 13 12 13 16 18 18 18 18 18 18 16 15 14 13 13 12 12 12 11 10 10 10 10 10 11 11 11 11 11 11 11 11 12 11 11 10 10 10 9 9 9 8 9 9 9 10 9 9 10 11 11 11 11 12 12 11 11 10 11 12 12 11 10 10 11
8 10 11 9 11 11 7 6 5 6 9 7 8 11 9 7 6 8 11 13 14 16 18 17 17 18 16 14 15 15 15 14 14 13 13 16 18 18 19 19 18 18 17 16 15 14 13 12 11 12 11 11 10 10 10 11 11 11 11 11 11 11 11 11 11 11 11 11 10 10 9 9 9 8 8 8 8 9 9 9 10 10 11 12 12 12 12 12 12 11 11 12 13 12 11 11 11
12 10 10 9 9 10 8 7 7 9 9 6 10 13 11 9 8 12 15 15 15 17 18 17 18 18 16 15 16 16 17 15 14 14 13 15 18 19 20 19 19 18 18 17 16 15 13 11 11 11 11 11 10 10 11 11 11 11 11 11 11 11 11 11 11 11 11 11 10 10 9 9 8 8 7 7 7 8 9 9 10 10 11 12 12 12 12 12 12 12 12 12 13 13 12 12 12
14 10 11 10 8 7 8 6 6 9 8 7 10 11 9 8 9 15 17 17 17 17 17 17 19 19 16 14 15 16 16 15 14 14 13 15 18 19 20 20 20 19 18 17 16 15 13 11 12 12 12 12 12 12 12 12 12 12 12 12 12 12 12 12 12 11 11 11 10 10 9 9 8 8 7 7 7 8 9 9 10 11 11 12 12 12 12 12 12 13 13 12 13 13 13 12 13
11 8 10 10 7 6 7 7 7 7 7 7 7 8 7 3 6 14 17 17 17 17 17 17 18 19 16 15 16 14 14 15 15 15 14 16 19 20 21 21 21 20 18 16 15 15 13 12 13 13 12 13 13 12 13 12 13 13 13 13 12 12 12 12 12 11 11 11 10 10 9 8 8 8 7 7 7 8 8 9 11 12 12 12 13 13 13 13 12 13 12 12 13 14 13 13 13
11 7 9 10 9 8 8 9 9 7 7 7 7 8 5 2 2 10 14 15 16 17 17 17 18 20 17 16 16 15 15 15 15 15 15 17 20 21 22 21 20 19 17 16 15 14 13 13 13 12 11 12 12 12 13 13 14 13 13 13 12 12 12 12 12 11 11 11 10 9 9 9 8 8 8 7 7 8 8 10 11 12 13 13 14 13 13 13 13 13 12 12 13 13 13 13 13
Wind_Direction
329 319 313 313 302 288 279 277 289 275 262 272 271 268 271 316 337 295 302 341 341 32 4 323 311 305 305 310 20 77 34 9 20 338 90 116 142 139 138 138 133 129 131 133 133 130 125 122 119 127 133 133 130 125 123 121 121 120 121 122 123 122 122 123 121 120 118 116 109 104 102 101 100 97 95 92 93 93 94 94 95 98 98 100 103 102 101 99 94 89 84 82 81 76 71 67 65
317 306 301 296 283 276 286 309 291 285 266 271 264 261 285 323 294 295 353 358 354 11 339 315 313 315 303 300 299 100 54 45 68 77 96 127 136 129 135 138 131 129 132 133 132 128 126 124 122 126 128 130 129 123 120 117 116 114 113 115 117 118 120 121 120 119 116 113 108 105 103 101 100 96 94 93 91 91 93 96 98 98 97 99 101 100 98 98 94 88 85 84 83 77 67 61 61
303 297 292 280 260 254 291 288 267 277 268 268 265 265 292 296 300 354 18 359 360 349 323 302 297 319 289 276 328 90 75 59 80 94 113 132 133 132 139 135 129 131 133 134 131 126 128 128 125 127 127 128 126 122 119 117 117 115 116 116 116 117 119 121 120 119 115 112 108 105 105 101 99 97 94 92 91 91 93 97 100 101 99 99 101 100 97 98 94 90 87 85 80 72 65 59 58
287 280 280 287 266 245 273 269 260 272 272 269 268 275 291 310 331 17 21 357 359 326 301 287 274 22 328 337 62 81 79 73 98 112 122 131 135 138 138 133 132 134 136 135 130 127 130 131 127 129 129 128 125 122 119 118 119 119 121 121 121 122 123 124 121 119 116 113 110 107 105 101 99 98 95 93 93 93 94 96 97 100 103 104 104 102 100 100 97 95 91 86 75 65 61 57 56
268 262 253 273 286 290 282 275 273 267 269 275 281 283 292 12 357 24 37 356 333 296 300 288 302 114 66 32 33 93 94 122 119 113 111 121 132 136 137 133 134 137 137 132 128 128 131 132 129 130 131 129 127 123 120 119 121 122 123 124 125 125 125 123 121 119 116 114 112 108 104 101 99 96 96 95 94 95 97 99 99 100 103 104 105 105 105 102 101 101 94 84 72 61 58 56 54
252 249 225 244 274 312 283 265 266 262 258 259 265 273 286 22 28 354 356 313 287 292 297 277 297 104 108 60 49 63 57 123 109 99 111 125 133 135 136 136 138 136 132 128 127 127 131 133 129 131 133 131 129 126 123 122 123 124 124 126 127 126 125 123 121 119 117 115 112 108 105 102 99 96 94 90 89 90 94 101 106 109 108 107 105 104 106 104 102 104 97 81 68 57 56 57 56
250 254 216 228 248 243 255 259 262 264 262 263 269 274 288 355 54 305 288 239 224 201 234 262 245 117 121 118 83 55 32 68 104 111 120 131 135 134 136 138 138 133 129 127 126 128 133 133 129 132 135 131 129 128 126 125 126 126 127 128 128 127 125 123 121 120 117 115 112 108 105 102 98 95 89 84 85 85 88 91 101 114 115 116 116 109 106 108 109 108 98 80 69 59 55 58 63
246 259 240 247 254 239 248 257 258 263 265 266 270 276 292 324 134 269 279 249 270 235 210 209 216 217 112 118 82 64 48 65 102 118 125 134 138 137 139 137 135 133 129 125 124 127 131 131 129 131 134 131 128 130 128 127 128 128 130 130 130 127 126 125 123 122 118 113 110 104 101 99 95 92 86 82 81 79 79 78 83 97 113 124 130 123 120 121 124 118 101 86 77 62 56 62 74
229 232 249 258 258 260 258 261 258 260 261 258 258 259 280 287 226 245 266 258 272 282 231 188 210 169 96 89 79 92 88 90 109 122 132 138 140 139 137 136 135 132 126 124 124 126 128 130 129 129 131 130 130 130 128 129 130 131 133 132 131 129 127 126 123 121 117 112 108 102 98 94 90 87 84 81 81 78 76 75 76 84 117 154 154 147 146 132 137 141 117 101 85 65 59 66 81
222 217 241 255 252 262 258 263 261 261 260 256 259 262 261 244 234 236 251 255 252 253 198 134 199 144 119 103 99 113 118 119 123 132 138 138 140 137 135 136 135 131 127 127 127 127 128 130 128 128 130 132 133 131 132 132 132 133 134 133 131 130 128 126 125 121 117 114 109 103 95 87 82 81 85 88 87 82 79 73 67 71 90 131 154 159 161 144 156 173 148 117 96 70 62 69 84
227 210 235 255 251 259 258 264 262 265 262 252 259 262 250 236 239 236 237 247 249 245 177 171 200 143 123 105 108 135 131 134 134 136 140 138 138 134 134 133 135 134 131 131 131 130 129 129 129 129 132 136 138 137 137 134 134 135 134 134 131 130 129 128 126 123 120 116 109 101 90 83 79 80 89 95 94 86 78 68 58 57 69 93 125 154 177 189 183 184 164 131 108 79 65 70 82
238 218 221 244 250 257 260 265 262 266 265 243 239 228 207 227 236 236 236 239 236 239 203 190 182 137 131 120 121 143 139 139 135 138 140 138 137 134 134 132 136 136 133 134 132 133 131 130 129 130 136 140 143 141 139 136 135 134 133 134 132 130 129 129 128 126 123 115 109 101 93 87 82 85 97 101 101 91 78 69 56 47 54 80 108 134 164 187 186 176 160 133 112 88 72 71 78
236 235 228 239 250 258 261 264 263 266 265 253 236 180 164 217 228 235 241 240 231 233 209 178 145 123 126 124 135 151 144 142 135 138 139 138 137 133 134 132 135 135 134 135 134 136 134 133 133 134 138 139 143 144 141 139 139 137 134 133 131 131 130 130 129 127 123 116 110 103 99 93 88 90 104 110 102 96 90 82 64 46 45 64 93 117 146 163 167 164 153 132 109 88 73 70 74
231 240 244 248 249 255 259 261 263 263 262 263 214 134 164 216 231 239 240 238 225 230 206 154 141 119 119 133 152 162 146 144 138 137 138 135 135 133 134 133 134 135 135 136 137 138 137 137 138 137 135 133 136 139 141 141 144 143 137 134 134 133 132 131 129 127 121 117 112 106 100 92 87 84 97 109 105 102 97 91 79 58 48 57 80 105 131 147 156 158 148 133 109 81 70 68 65
231 239 245 253 251 253 254 255 261 265 269 266 130 133 187 211 225 241 240 246 225 214 173 144 161 135 145 167 167 159 148 145 140 138 137 133 134 135 134 134 135 135 135 137 138 139 139 140 141 139 137 136 133 131 136 142 146 146 140 138 138 136 134 132 127 124 118 116 110 100 91 84 78 74 87 91 104 110 95 90 91 82 65 59 71 101 128 141 153 162 152 138 120 79 66 63 63
233 247 239 244 247 249 251 249 251 258 262 113 126 171 205 205 201 233 237 250 231 168 145 159 162 130 160 190 164 150 149 145 143 141 138 134 136 137 137 136 134 133 134 136 137 139 139 141 143 143 141 139 133 128 130 140 148 144 139 137 138 137 132 128 124 122 119 112 103 92 82 88 78 65 87 76 74 108 104 109 97 89 79 66 67 92 126 144 156 165 162 152 134 92 72 60 61
226 241 239 236 241 245 248 249 246 251 244 131 150 198 213 214 180 220 234 242 237 157 173 184 129 112 143 165 146 145 147 145 146 145 139 137 141 144 142 139 136 134 135 134 135 136 137 141 141 139 138 135 128 126 128 140 151 145 141 139 135 133 127 126 126 125 120 101 87 90 86 112 126 88 100 87 78 103 116 124 97 84 75 67 65 70 99 143 165 172 175 169 161 129 64 45 50
218 221 233 232 236 241 242 247 246 249 238 140 140 171 216 241 178 197 213 227 232 183 186 156 93 94 109 124 135 142 145 146 151 149 144 145 147 149 146 145 143 138 137 134 133 135 135 136 134 133 133 129 124 124 129 140 148 146 150 150 141 137 135 136 136 133 132 117 93 105 121 147 154 143 134 140 152 161 183 128 95 85 73 66 63 63 72 92 157 191 200 201 194 198 306 228 228
218 216 228 233 239 242 246 257 252 241 248 120 131 157 208 248 213 188 201 215 214 195 175 133 103 106 116 127 136 145 147 150 156 155 153 153 151 151 151 151 146 140 137 133 132 135 133 129 130 133 130 127 126 127 135 142 145 149 156 158 155 157 153 148 148 145 147 146 133 139 159 161 143 138 150 169 172 164 124 92 82 83 72 58 56 63 59 58 71 141 214 232 225 228 251 232 225
217 224 230 231 239 244 249 272 283 264 289 124 194 232 217 241 239 200 209 216 207 196 171 151 143 137 140 140 144 153 152 154 159 158 159 156 151 151 152 151 148 144 139 134 133 131 129 130 132 132 133 136 136 136 143 145 147 152 156 161 163 164 161 158 158 152 147 148 150 159 161 156 149 139 143 149 160 168 98 82 86 66 57 47 24 48 44 32 43 42 3 268 237 233 247 243 237
213 223 236 234 239 249 208 215 239 245 282 262 236 256 250 232 222 215 220 217 207 198 177 164 157 151 153 149 155 161 156 158 159 160 161 154 149 148 149 147 144 140 136 134 132 130 131 135 136 135 140 144 143 143 146 147 152 154 156 162 162 159 161 161 161 154 152 158 163 167 158 149 149 133 130 118 148 183 215 161 116 58 31 40 356 275 225 316 342 260 294 312 246 238 248 251 259
219 221 235 246 260 264 219 195 216 210 233 247 240 253 264 231 209 213 224 221 215 205 173 155 151 150 152 155 164 164 157 159 160 163 160 153 149 145 145 142 138 137 136 134 132 134 137 140 142 143 146 148 149 146 147 150 155 159 156 156 155 154 158 159 159 157 161 169 168 164 148 122 85 105 136 46 148 198 223 210 164 89 27 234 316 281 218 251 260 229 228 249 252 253 261 257 258
226 222 228 244 256 250 221 166 185 204 224 228 231 258 289 246 210 205 226 220 197 211 161 148 148 149 155 165 170 164 158 160 164 164 157 153 151 146 143 139 140 144 141 137 137 139 142 146 146 148 150 151 151 147 150 154 153 155 153 149 150 150 154 156 154 157 166 165 160 157 137 94 18 306 303 329 341 266 267 272 231 123 273 238 250 286 256 243 255 248 246 251 255 256 258 255 255
225 233 223 229 227 228 217 173 189 208 225 227 242 266 263 245 219 199 222 197 127 129 132 136 141 150 165 173 170 162 159 164 165 158 152 152 149 144 141 141 146 146 142 140 141 144 147 150 150 152 153 152 153 151 154 155 150 149 148 146 146 146 149 153 153 156 163 155 157 168 143 92 267 294 293 307 311 306 317 331 334 334 305 304 306 290 289 281 280 285 283 277 271 264 257 254 255
221 240 233 216 217 225 221 215 212 211 220 227 241 250 242 242 235 212 210 167 142 146 141 146 149 160 173 172 166 162 162 165 157 148 150 150 144 143 143 147 150 144 143 145 145 149 151 154 155 155 154 153 154 156 156 152 150 150 148 146 144 145 145 146 150 150 153 152 165 194 255 253 155 324 298 299 292 297 311 318 323 319 308 310 308 303 306 310 302 289 283 282 276 271 268 262 257
213 231 236 214 219 227 223 223 220 215 216 222 231 239 238 233 234 222 190 145 142 152 160 158 156 165 169 166 164 164 167 162 150 145 146 143 143 148 149 150 150 145 147 149 150 152 155 158 157 156 155 155 156 157 156 151 154 152 146 144 141 144 143 140 144 145 149 154 168 184 210 249 118 359 300 308 298 282 289 291 312 299 296 307 300 304 308 300 294 288 286 287 285 285 288 283 275
212 226 228 219 222 223 220 220 215 214 214 219 229 232 231 221 218 211 154 137 145 151 155 151 155 164 166 168 168 167 162 150 143 142 139 141 149 152 150 151 149 147 151 154 154 154 158 160 156 156 157 157 158 157 154 153 151 147 144 141 140 143 145 144 145 146 149 154 172 164 144 169 141 47 305 320 320 303 298 326 347 317 317 319 308 308 306 296 290 288 289 293 294 297 300 296 288
229 229 227 220 226 225 215 219 213 212 214 214 228 234 222 206 207 186 123 137 159 152 143 150 163 166 169 171 165 155 140 133 139 141 143 149 155 152 148 151 150 149 155 157 155 155 158 160 157 158 161 161 159 155 152 151 146 147 149 142 142 147 147 148 146 149 153 155 159 144 135 143 117 60 360 356 347 331 347 348 341 347 338 325 317 313 308 301 294 291 290 292 291 292 295 291 287
232 226 230 217 220 229 215 217 213 209 213 203 216 238 218 201 183 68 50 13 159 154 153 167 173 169 173 166 149 141 132 136 143 143 150 150 148 149 146 149 152 152 156 156 153 155 156 157 157 158 162 159 155 157 154 148 148 151 150 142 145 148 145 147 147 151 151 146 138 125 124 113 93 66 33 3 343 340 339 340 345 341 330 328 317 312 309 300 296 297 296 293 292 295 294 289 287
225 214 232 222 215 226 214 214 210 205 210 193 202 233 214 162 62 63 62 34 40 67 77 92 113 180 188 151 137 140 116 119 128 130 149 146 140 143 141 147 156 154 150 154 152 151 151 151 154 157 161 158 158 162 153 147 154 151 144 141 145 144 140 141 141 140 133 129 123 110 103 97 88 67 36 342 343 344 333 335 344 341 326 325 316 312 312 303 302 304 304 302 300 302 296 292 291
217 209 223 230 224 222 206 205 206 204 201 190 208 233 195 69 55 69 92 99 86 77 63 55 57 20 9 73 90 73 59 48 35 184 177 131 123 125 135 148 151 142 139 147 148 141 143 146 149 157 161 159 159 160 150 150 158 149 142 142 141 138 135 132 126 121 115 114 111 99 89 84 72 57 21 340 341 332 337 338 337 342 330 324 317 313 312 310 310 308 309 310 305 304 299 296 293
213 215 215 222 231 227 199 194 202 205 194 189 213 228 119 71 57 69 110 127 122 118 122 111 116 114 78 77 83 79 73 50 20 356 37 76 104 98 104 121 92 98 127 138 145 138 138 144 144 156 160 160 161 159 156 156 153 142 138 136 133 129 125 123 115 109 102 94 92 86 78 72 60 41 13 347 338 331 337 335 333 339 329 323 318 314 313 311 313 313 314 313 308 307 303 299 295
207 216 220 213 219 234 201 184 193 204 198 191 213 223 102 95 110 191 209 154 135 127 127 134 140 134 124 121 108 94 94 88 50 18 47 96 126 96 74 93 86 110 145 144 150 142 136 143 153 167 158 157 169 162 157 154 147 141 134 128 126 121 115 111 103 96 89 80 78 76 72 67 55 40 23 2 345 341 344 337 335 335 328 323 317 314 314 314 317 319 317 315 310 305 301 298 297
201 207 225 215 212 231 204 174 186 203 207 197 210 215 107 129 157 176 193 170 148 137 132 142 147 135 128 126 118 112 108 107 94 69 83 113 132 95 90 111 119 143 156 139 137 143 145 149 168 179 149 142 166 169 161 155 147 139 128 120 118 112 105 100 94 90 85 77 74 71 68 64 55 43 29 19 2 350 350 349 340 333 329 321 314 313 312 314 321 318 314 311 303 297 296 296 298
201 197 214 216 210 222 206 176 184 201 207 202 210 200 122 140 162 161 170 174 157 142 144 149 143 129 121 121 126 129 124 112 105 109 116 115 97 83 98 121 138 146 146 125 122 146 153 139 151 178 138 134 163 177 167 151 136 127 119 115 111 105 99 94 88 85 82 76 72 71 69 64 55 45 33 27 17 2 358 358 349 342 337 326 320 322 320 321 324 319 312 306 300 296 296 297 299
204 198 208 216 208 215 211 186 181 195 202 205 210 177 127 153 163 157 165 173 161 145 150 149 136 128 119 121 128 124 119 120 123 120 119 117 113 108 110 128 139 130 132 135 128 142 140 127 148 171 135 138 171 193 174 139 120 114 114 112 106 100 95 90 83 79 79 73 70 69 67 63 55 48 39 33 27 17 10 4 358 352 344 337 335 338 341 339 334 329 322 313 309 307 304 304 306
206 200 206 219 214 209 209 185 176 189 199 210 202 140 129 163 147 148 169 174 167 154 155 154 144 136 127 134 133 118 111 119 124 119 118 121 121 121 124 132 131 126 143 145 131 129 133 145 164 152 124 139 192 213 167 111 106 109 112 109 99 93 90 87 81 73 69 66 65 63 58 54 47 43 37 31 28 21 15 11 9 6 2 358 356 356 355 352 345 340 332 321 317 314 314 317 319
214 206 203 215 221 201 181 155 171 187 199 211 192 133 133 163 128 129 204 200 177 162 164 164 157 149 140 142 135 122 115 119 122 118 122 124 115 110 117 122 124 132 141 130 126 139 151 154 147 126 115 127 189 165 106 87 87 98 101 95 87 81 79 81 82 76 70 69 67 59 52 46 40 36 30 26 23 18 13 9 10 10 9 8 6 4 3 1 358 356 350 339 331 323 317 320 325
222 218 206 206 217 197 164 162 178 189 204 203 182 151 146 162 144 147 186 217 207 185 179 170 162 156 152 148 136 130 130 128 129 126 127 125 115 108 107 108 116 125 127 123 127 143 150 135 118 111 115 122 120 106 102 91 83 86 88 87 86 82 77 78 84 87 86 80 71 61 54 48 43 38 32 28 26 21 16 10 9 9 9 9 7 3 0 1 1 360 357 348 340 332 323 324 330
222 222 206 202 212 198 164 173 185 193 208 189 172 170 148 150 162 171 182 198 208 203 188 172 166 161 155 153 143 138 138 134 135 134 130 126 119 113 109 107 110 111 113 118 118 116 119 111 108 116 113 106 97 92 97 96 89 85 83 84 88 90 93 93 91 91 88 80 70 60 53 49 49 45 39 38 35 30 26 18 10 7 8 8 6 1 356 358 358 355 352 347 342 336 328 327 329
217 224 211 209 205 188 168 175 185 197 206 188 174 180 156 155 165 178 184 187 195 194 178 170 172 165 154 148 143 139 139 138 138 134 131 130 126 122 121 117 110 103 103 108 108 107 107 100 106 113 93 80 80 80 86 93 89 87 91 95 100 109 111 105 99 96 87 76 69 63 55 53 54 52 46 42 39 34 30 23 15 7 3 2 359 354 351 350 349 347 346 342 338 333 324 320 319
212 222 223 222 196 175 183 181 179 194 199 187 185 200 196 168 167 170 168 175 187 182 168 170 170 161 153 143 139 136 134 135 137 135 133 133 130 128 125 120 116 113 110 109 112 118 116 107 105 102 86 71 67 65 66 74 75 81 99 108 116 124 111 93 86 85 79 71 72 68 58 54 51 49 45 37 33 29 24 19 14 5 357 356 350 344 344 343 342 343 343 340 335 332 326 319 314
209 205 222 244 204 184 195 183 180 201 195 183 191 214 210 174 181 177 166 173 177 169 165 168 163 157 153 146 141 138 132 134 138 138 136 134 130 128 126 123 120 116 114 116 125 130 122 116 109 96 85 71 63 59 56 60 63 65 70 71 81 99 98 87 78 74 70 67 73 72 59 52 47 44 40 33 28 24 16 11 8 0 353 353 349 346 350 350 348 347 347 345 341 339 335 324 318
216 180 197 252 216 192 194 182 188 209 193 182 197 219 230 197 186 175 173 180 175 172 174 166 162 160 152 149 147 143 139 139 140 141 140 139 134 130 126 122 117 118 124 131 133 128 119 120 114 94 84 79 71 68 66 65 67 65 65 67 70 77 86 88 81 75 73 71 78 81 67 54 49 45 39 33 27 24 20 16 14 11 6 2 1 2 2 358 356 355 354 353 349 347 345 335 326
221 166 176 221 211 190 187 185 200 209 198 194 201 214 231 223 178 164 173 187 183 182 180 168 164 162 154 153 150 146 145 140 138 141 141 140 136 132 127 123 122 124 128 128 125 122 115 117 112 93 86 86 81 78 76 73 76 76 75 82 86 85 89 92 89 85 84 82 84 83 73 58 52 46 42 38 33 32 31 28 26 22 16 9 7 9 6 4 5 4 3 0 356 353 351 347 338
193 154 173 199 205 194 192 202 211 209 210 212 203 206 225 229 167 157 178 193 188 183 180 173 169 169 166 158 151 148 145 136 136 139 137 136 134 131 129 129 128 125 123 122 120 118 114 113 107 95 91 90 83 79 76 73 73 76 76 82 90 96 101 100 96 91 88 91 86 79 70 60 54 48 44 41 39 39 36 33 29 22 18 13 12 13 11 11 11 11 12 8 5 1 355 352 346
153 155 182 191 202 205 201 214 217 213 219 217 208 206 219 228 181 167 188 195 186 179 180 178 171 174 174 160 152 158 152 139 140 138 132 133 134 133 133 129 123 119 120 123 122 118 114 111 104 97 93 88 82 78 76 73 71 72 75 80 87 95 106 106 100 92 92 99 91 79 71 63 58 54 49 44 41 39 34 30 26 23 22 18 15 17 15 14 12 15 18 13 11 10 4 359 355
164 174 193 182 193 206 202 214 216 220 223 211 211 211 216 231 209 173 183 192 192 189 184 179 174 173 169 158 157 167 163 148 144 139 135 137 136 137 137 130 124 124 125 126 127 124 116 110 104 98 92 85 82 77 75 75 73 74 76 79 85 89 97 105 106 98 94 97 92 85 79 70 64 58 53 47 40 35 32 29 27 27 25 20 20 22 19 18 18 22 22 17 15 14 9 6 3
181 187 194 181 186 195 200 209 208 219 227 213 214 212 214 236 219 170 177 191 196 194 183 177 177 170 160 160 164 171 171 157 148 144 142 142 143 143 141 135 130 131 131 130 129 125 116 111 107 99 93 85 83 80 77 77 75 75 78 83 87 87 92 100 104 98 93 93 93 90 85 75 68 61 54 49 39 34 35 32 31 30 26 23 23 25 24 22 24 28 26 21 20 17 12 9 6
189 192 191 188 188 186 196 204 202 215 224 224 225 215 210 231 207 173 181 192 190 187 182 179 176 162 149 158 169 174 173 162 153 150 148 149 149 147 141 135 132 133 135 134 129 125 119 114 110 103 98 91 88 85 81 80 76 77 82 86 90 92 96 95 93 93 95 96 94 89 86 80 72 64 56 49 41 39 41 37 35 34 30 29 27 26 28 26 26 30 26 22 21 17 13 10 7
193 201 201 203 198 187 193 202 203 208 211 209 214 211 206 219 193 162 176 183 184 186 182 176 171 155 147 161 173 172 169 163 160 157 154 153 150 146 140 136 137 137 136 134 130 128 123 119 115 109 104 98 94 90 86 83 80 80 83 87 92 97 100 96 90 92 94 95 95 91 88 83 74 68 59 52 46 45 45 42 40 37 33 32 31 30 31 29 27 30 27 22 19 16 13 10 7
193 207 212 212 206 192 187 218 230 224 219 202 190 199 191 166 76 133 165 171 180 181 167 162 163 158 160 171 170 165 167 169 170 164 157 153 150 147 143 141 141 141 138 137 136 132 127 123 118 113 108 105 103 99 94 90 87 87 87 88 92 96 100 99 97 95 93 92 94 93 90 84 77 72 64 57 53 50 48 45 43 40 37 36 35 34 34 32 29 30 29 25 20 15 13 12 9
187 206 215 210 212 210 191 203 276 273 236 202 185 198 161 133 162 176 170 170 175 167 148 152 163 163 167 174 166 164 171 174 173 168 158 154 154 150 147 146 143 143 142 139 137 133 128 124 120 118 116 113 111 106 100 96 94 93 91 91 93 95 96 97 99 98 95 94 94 93 92 84 77 74 68 62 58 54 51 49 47 43 39 38 38 37 35 34 32 32 30 25 20 13 11 14 11
193 198 208 202 214 225 216 202 192 214 228 194 186 208 194 182 187 173 176 177 175 165 150 156 169 165 166 173 168 168 171 170 167 164 157 155 157 153 149 148 144 142 141 138 137 133 128 125 124 124 122 118 113 108 104 101 99 97 95 95 95 95 97 97 98 99 97 97 95 92 89 83 78 75 72 66 61 58 53 50 49 45 42 39 38 37 34 33 33 31 28 25 19 15 15 17 12
219 202 199 203 211 217 217 215 199 202 220 204 198 211 214 213 183 165 179 184 181 173 160 166 176 171 172 177 176 175 170 166 163 159 158 159 158 154 148 146 142 139 138 138 137 133 129 127 124 122 119 115 113 111 109 106 103 102 100 99 97 97 98 98 99 100 99 98 94 90 86 82 79 76 74 70 64 62 56 52 50 46 44 41 38 36 32 32 31 28 26 22 17 15 16 16 13
227 216 203 211 218 210 205 213 210 202 208 212 206 205 217 220 178 169 180 183 183 178 166 173 179 175 176 177 182 180 166 161 159 157 159 159 155 152 148 144 142 140 140 142 140 135 132 128 122 119 117 115 115 113 111 108 106 106 104 103 100 99 100 101 102 101 98 95 92 91 87 82 81 78 75 72 66 64 59 54 52 47 44 41 37 34 31 29 29 26 24 18 14 14 15 14 12
212 214 206 207 204 200 202 208 216 212 205 204 210 212 215 218 163 171 178 180 186 183 175 180 179 172 173 179 185 179 159 155 157 157 158 155 153 152 147 145 144 143 143 144 141 136 134 129 123 122 121 119 118 115 114 111 108 108 107 105 103 102 101 101 100 97 94 92 89 89 87 84 84 79 78 75 69 66 61 56 53 47 44 40 35 32 28 25 24 22 20 16 13 13 13 13 11
195 202 209 206 194 194 205 209 209 218 222 211 218 221 200 58 110 173 177 181 188 187 181 181 178 172 174 183 184 169 155 157 157 157 156 151 151 151 147 146 145 144 145 144 142 140 135 130 127 127 124 122 122 120 118 115 112 111 109 107 104 101 100 98 97 95 93 92 88 87 88 86 83 78 78 76 70 67 63 59 55 48 43 39 34 29 24 21 19 15 15 14 11 11 12 12 10